{"data":{"norad_id":55380,"intl_designator":"2023-013BB","name":"STARLINK-5571","alt_names":[],"object_type":"PAYLOAD","status":"ACTIVE","operator":null,"country":"US","launch_date":"2023-01-26","launch_site_code":"AFETR","launch_vehicle":null,"mission":null,"orbit_class":"UNKNOWN","rcs_meters":null,"size_class":null,"mass_kg":null,"dimensions":null,"purposes":["comms"],"wikipedia_slug":null,"has_3d_model":false,"image_url":null,"decayed_at":null,"tle_current":{"epoch":"2026-05-24T17:09:40.649184Z","epoch_age_seconds":100457,"freshness":"FRESH","line1":"1 55380U 23013BB  26144.71505381  .00035139  00000+0  23704-2 0  9995","line2":"2 55380  42.9996 232.6770 0001846 307.8265  52.2411 15.06044760183313","mean_motion":15.0604476,"eccentricity":0.0001846,"inclination_deg":42.9996,"raan_deg":232.677,"arg_perigee_deg":307.8265,"mean_anomaly_deg":52.2411,"bstar":0.0023704,"rev_number":18331,"period_min":95.614688105286,"perigee_km":547.02191101073,"apogee_km":549.57915174732,"semimajor_km":6926.437531379,"source":"CELESTRAK","updated_at":"2026-05-25T13:38:17.770240Z"}}}